Das Wetter in  D-61279 Heinzenberg / Taunus





Wetter Minimum- & Maximum-Werte im November 2013

Standort: Heinzenberg / Taunus - Höhe 297 m         8 24' 1" Ost 50 21' 51" Nord
(   3-stündige Aktualisierung    letzte Aktualisierung um 19:04 am 30.11.2013  )


Messgrösse

Minimum

Maximum

Durchschnitt

Temperatur West /
Luftfeuchte West
Anklicken für Monats-Diagramm

-6,3 C

03:07
27.11.2013

62 %

15:10
09.11.2013

14,7 C

10:14
07.11.2013

93 %

19:33
06.11.2013

Temp

4,4 C

Feuchte

85 %

Temperatur Ost /
Luftfeuchte Ost
Anklicken für Monats-Diagramm

-16,2 C

08:09
14.11.2013

--

--
--

76,8 C

10:39
14.11.2013

--

--
--

4,7 C

--

Luftdruck Anklicken für Monats-Diagramm

986,7 hPa

16:06
04.11.2013

1036,6 hPa

01:12
27.11.2013

1016,8 hPa

Taupunkt

-8,2 C

03:07
27.11.2013

12,1 C

15:49
02.11.2013

2,0 C

Windchill
( gefühlte Temperatur )

-11,4 C

03:32
22.11.2013

12,0 C

20:29
02.11.2013

1,7 C

Windgeschwindigkeit /
Windrichtung
Anklicken für Monats-Diagramm

---

49,4 km/h / W-SW

16:31
04.11.2013

9,0 km/h
W-SW

Helligkeit /
Sonnenschein
Anklicken für Monats-Diagramm
Anklicken für Monats-Diagramm

Sonnenschein:

41:16 Stunden

Max: 7:15 Std am
26.11.2013

53,1 klux

10:05
03.11.2013

9,0 klux

Solarstrahlung Anklicken für Monats-Diagramm

---

363 W/m

10:05
03.11.2013

69 W/m

Regenmenge
    November 2013
Anklicken für Monats-Diagramm

Insgesamt 79,6 l/m

in 77:30 Stunden
an 24 Tagen

13,7 l/m

13:24
02.11.2013

Gesamtmenge

79,6 l/m

Regen-Tage
    November 2013
Anklicken für Monats-Diagramm

>   0 mm/Tag

>   2 mm/Tag

>   5 mm/Tag

> 10 mm/Tag

> 20 mm/Tag

24 Tage     
9 Tage     
7 Tage     
2 Tage     
0 Tage     

Eisige Tage November 2013 / 2012

Tmin ≤ -10C     

0 Tage

/

0 Tage

Eistage November 2013 / 2012

Tmax <     0C     

  1 Tag

/

0 Tage

Frosttage November 2013 / 2012

Tmin ≤     0C     

11 Tage

/

8 Tage

Kalte Tage November 2013 / 2012

Tmax <   10C     

22 Tage

/

22 Tage

Warme Tage November 2013 / 2012

Tmax ≥   20C     

0 Tage

/

0 Tage

Sommertage November 2013 / 2012

Tmax ≥   25C     

0 Tage

/

0 Tage

Heisse Tage November 2013 / 2012

Tmax ≥   30C     

0 Tage

/

0 Tage


Monatsdiagramm November 2013

Die Kurven zeigen den Durchschnittswert des jeweiligen Tages an


Wetter-Monatsübersicht November 2013
Datum
  Temperatur
   Luftdruck
   Wind
  Regen
   Luftfeuchte
   Helligkeit

Sonnen-
schein


Temp.

Min.
Temp.

Max.
Temp.


Luftdruck

Min.
Luftdruck

Max.
Luftdruck

-Geschw.
Haupt-Richtg.

Max.
Wind

Menge /
Dauer


Feuchte

Min.
Feuchte

Max.
Feuchte


Helligkeit

Max.
Helligkeit

1.
November
7,9 C6,0 C
00:38
9,2 C
12:53
1018,0 hPa1011,0 hPa
23:44
1022,6 hPa
00:38
4,8 km/h
W-SW
21,0 km/h
09:33  
7,0 l/m
9:31 Stunden
77 %70 %
03:58
85 %
20:33
6,3 klux38,7 klux
11:53
5 Min 
2.
November
11,2 C7,2 C
00:04
14,2 C
16:09
1004,6 hPa1002,4 hPa
08:04
1011,0 hPa
00:04
17,8 km/h
W-SW
37,2 km/h
17:24  
13,7 l/m
8:31 Stunden
86 %77 %
19:04
91 %
14:04
5,5 klux23,6 klux
12:34
--- 
3.
November
8,7 C6,6 C
23:51
11,9 C
00:05
1004,9 hPa1001,1 hPa
02:45
1007,9 hPa
20:55
25,2 km/h
W-SW
42,5 km/h
10:30  
2,7 l/m
1:45 Stunden
78 %69 %
14:00
88 %
03:45
15,6 klux53,1 klux
10:05
3:00 Std 
4.
November
8,1 C4,6 C
23:57
11,0 C
16:06
993,3 hPa986,7 hPa
16:06
1004,9 hPa
00:11
27,9 km/h
W-SW
49,4 km/h
16:31  
0,6 l/m
1:05 Stunden
82 %76 %
02:11
87 %
18:52
4,0 klux19,2 klux
13:31
--- 
5.
November
5,3 C3,6 C
18:37
6,9 C
11:02
998,6 hPa993,7 hPa
21:27
1001,9 hPa
07:32
17,6 km/h
W-SW
37,9 km/h
23:58  
9,0 l/m
6:00 Stunden
82 %74 %
12:57
91 %
23:13
17,0 klux50,9 klux
11:42
2:50 Std 
6.
November
8,8 C5,7 C
04:13
12,6 C
21:43
1002,8 hPa995,5 hPa
00:03
1006,2 hPa
22:24
20,4 km/h
W
39,1 km/h
03:53  
9,0 l/m
6:05 Stunden
86 %76 %
12:33
93 %
19:33
10,3 klux50,3 klux
10:43
20 Min 
7.
November
13,8 C12,6 C
00:04
14,7 C
10:14
1007,9 hPa1005,1 hPa
00:34
1009,2 hPa
20:59
28,4 km/h
W-SW
44,7 km/h
04:34  
---
78 %74 %
16:29
86 %
00:04
8,0 klux46,0 klux
09:44
50 Min 
8.
November
10,7 C9,2 C
07:55
13,6 C
01:25
1008,6 hPa1004,5 hPa
20:35
1011,8 hPa
09:00
7,6 km/h
W-SW
33,9 km/h
00:20  
12,5 l/m
7:10 Stunden
87 %80 %
15:10
91 %
21:15
9,0 klux29,3 klux
11:20
10 Min 
9.
November
8,4 C7,2 C
17:50
10,4 C
00:00
1010,1 hPa1004,8 hPa
23:36
1014,1 hPa
09:45
23,3 km/h
W-SW
41,6 km/h
04:10  
0,3 l/m
1:35 Stunden
74 %62 %
15:10
87 %
00:00
12,7 klux44,4 klux
12:20
2:40 Std 
10.
November
5,4 C2,7 C
23:07
7,5 C
01:51
1009,4 hPa1002,7 hPa
03:56
1023,0 hPa
23:22
10,0 km/h
NW
38,7 km/h
00:26  
2,1 l/m
4:05 Stunden
85 %78 %
00:01
88 %
23:32
4,8 klux13,5 klux
12:36
--- 
11.
November
3,5 C-1,0 C
23:53
7,8 C
15:52
1029,8 hPa1022,9 hPa
00:32
1032,8 hPa
22:53
3,1 km/h
NW
13,3 km/h
12:32  
---
86 %77 %
15:57
90 %
08:47
16,3 klux43,2 klux
11:47
3:45 Std 
12.
November
2,5 C-2,3 C
08:08
7,8 C
13:38
1027,9 hPa1024,5 hPa
15:08
1031,9 hPa
02:48
3,6 km/h
W-SW
20,1 km/h
13:18  
0,3 l/m
50 Minuten
81 %66 %
16:18
91 %
11:28
17,9 klux46,9 klux
11:58
4:10 Std 
13.
November
4,8 C-0,8 C
23:49
10,2 C
15:54
1030,8 hPa1027,9 hPa
00:54
1033,1 hPa
09:49
1,4 km/h
SO
10,4 km/h
14:34  
0,8 l/m
1:35 Stunden
84 %69 %
15:54
91 %
10:29
19,1 klux50,8 klux
13:14
4:45 Std 
14.
November
1,3 C-2,5 C
06:34
6,1 C
14:39
1023,0 hPa1019,4 hPa
14:39
1029,7 hPa
00:39
1,0 km/h
SO
12,7 km/h
15:34  
---
15 Minuten
87 %83 %
15:34
91 %
12:24
10,3 klux40,9 klux
14:04
1:30 Std 
15.
November
3,6 C1,2 C
20:50
7,4 C
15:15
1027,0 hPa1021,8 hPa
00:00
1032,4 hPa
23:11
3,2 km/h
NO
24,3 km/h
10:55  
0,2 l/m
20 Minuten
83 %69 %
15:25
90 %
04:50
20,4 klux45,0 klux
12:20
6:10 Std 
16.
November
2,0 C-0,8 C
21:36
3,9 C
15:36
1031,6 hPa1029,6 hPa
23:02
1033,4 hPa
09:01
1,3 km/h
SO
13,1 km/h
13:16  
---
84 %81 %
12:01
88 %
22:22
5,0 klux9,1 klux
11:31
--- 
17.
November
1,9 C-0,2 C
00:02
3,2 C
16:07
1025,1 hPa1019,8 hPa
22:43
1028,6 hPa
00:02
1,4 km/h
NO
16,1 km/h
11:12  
---
89 %87 %
19:22
91 %
06:37
4,0 klux8,8 klux
10:17
--- 
18.
November
4,3 C3,0 C
00:03
5,6 C
15:38
1012,8 hPa1009,3 hPa
22:48
1018,8 hPa
00:03
3,5 km/h
W-SW
18,8 km/h
13:48  
---
86 %80 %
15:58
89 %
01:08
3,36 klux7,69 klux
14:18
--- 
19.
November
4,7 C4,0 C
21:08
5,9 C
14:23
1007,0 hPa1006,0 hPa
14:23
1009,3 hPa
00:03
2,2 km/h
NW
13,3 km/h
21:08  
8,5 l/m
5:57 Stunden
89 %87 %
00:03
91 %
10:23
4,31 klux17,30 klux
14:13
--- 
20.
November
3,3 C0,4 C
20:20
4,7 C
14:50
1005,2 hPa1001,2 hPa
22:56
1007,3 hPa
09:45
5,7 km/h
NW
19,6 km/h
10:35  
8,1 l/m
7:10 Stunden
87 %79 %
15:05
92 %
03:55
10,2 klux34,2 klux
10:55
41 Min 
21.
November
2,4 C1,3 C
19:26
3,9 C
11:16
1001,5 hPa999,2 hPa
06:01
1004,5 hPa
20:51
9,2 km/h
NO
20,3 km/h
09:56  
1,7 l/m
4:45 Stunden
86 %81 %
00:01
88 %
08:01
5,0 klux13,0 klux
10:46
--- 
22.
November
2,1 C1,4 C
00:02
2,8 C
23:43
1008,5 hPa1004,5 hPa
01:17
1013,7 hPa
22:53
10,5 km/h
NO
32,0 km/h
15:37  
0,3 l/m
1:00 Stunden
88 %86 %
11:22
89 %
15:57
1,5 klux3,9 klux
11:32
--- 
23.
November
4,5 C2,8 C
00:03
6,5 C
14:03
1016,1 hPa1013,6 hPa
02:33
1018,5 hPa
21:18
8,1 km/h
N-NO
26,5 km/h
09:53  
0,2 l/m
51 Minuten
87 %80 %
14:08
89 %
00:03
7,16 klux41,10 klux
13:03
40 Min 
24.
November
3,9 C-2,0 C
23:50
6,5 C
14:04
1021,8 hPa1018,5 hPa
00:04
1027,8 hPa
23:50
7,6 km/h
N-NO
23,4 km/h
07:59  
0,2 l/m
30 Minuten
80 %75 %
11:19
89 %
00:04
10,4 klux46,7 klux
13:24
1:50 Std 
25.
November
-1,8 C-5,9 C
08:00
1,3 C
16:40
1030,4 hPa1027,8 hPa
00:00
1033,0 hPa
23:51
1,4 km/h
W
13,3 km/h
13:20  
0,3 l/m
1:10 Stunden
85 %78 %
00:00
89 %
19:40
5,8 klux26,3 klux
09:35
35 Min 
26.
November
-2,9 C-6,0 C
08:06
2,7 C
15:21
1035,1 hPa1033,0 hPa
00:01
1036,6 hPa
08:56
1,0 km/h
NW
9,8 km/h
14:26  
---
5 Minuten
86 %79 %
15:31
89 %
10:16
20,2 klux36,8 klux
11:41
7:15 Std 
27.
November
-3,6 C-6,3 C
03:07
-1,7 C
15:42
1035,5 hPa1035,0 hPa
15:42
1036,6 hPa
01:12
0,2 km/h
NO
4,6 km/h
06:47  
---
89 %86 %
00:02
90 %
10:57
5,7 klux12,3 klux
14:12
--- 
28.
November
1,4 C-1,6 C
00:03
3,6 C
18:48
1032,5 hPa1031,2 hPa
18:48
1035,0 hPa
00:03
1,4 km/h
NW
10,3 km/h
11:13  
0,2 l/m
1:15 Stunden
91 %90 %
00:03
92 %
09:33
3,6 klux9,8 klux
11:08
--- 
29.
November
3,5 C2,2 C
22:25
5,3 C
13:19
1023,3 hPa1013,4 hPa
19:44
1032,3 hPa
00:14
12,9 km/h
W-SW
41,5 km/h
20:19  
1,7 l/m
3:30 Stunden
89 %80 %
12:49
92 %
00:04
3,3 klux14,2 klux
12:59
--- 
30.
November
3,0 C2,2 C
02:10
4,4 C
14:05
1020,2 hPa1013,7 hPa
01:25
1028,2 hPa
22:26
9,3 km/h
W
27,5 km/h
01:20  
0,6 l/m
2:30 Stunden
90 %89 %
11:40
91 %
02:35
4,6 klux21,4 klux
11:20
--- 



November
2013

Temperatur

  

Luftdruck

  

Wind

  

Regen

  

Luftfeuchte

  

Helligkeit

Sonnen-
schein

Min

Max

Min

Max

Max

Max

Min

Max

Max

Max

4,4 C

-6,3 C

03:07 Uhr
27.11.2013

14,7 C

10:14 Uhr
07.11.2013

1016,8 hPa

986,7 hPa

16:06 Uhr
04.11.2013

1036,6 hPa

01:12 Uhr
27.11.2013

9,0 km/h

W-SW

49,4 km/h

16:31 Uhr
04.11.2013

13,7 l/m

8:31 Stunden
02.11.2013

85 %

62 %

15:10 Uhr
09.11.2013

93 %

19:33 Uhr
06.11.2013

9,0 klux

53,1 klux

10:05 Uhr
03.11.2013

7:15 Std

am
26.11.2013

Gesamt

Gesamt

79,6 l/m

24 Tage
77:30 h

41:16 Std


Wetter-Diagramme November 2013     Heinzenberg / Taunus   
TemperaturLuftfeuchte
SolarstrahlungLuftdruck
HelligkeitSonnenschein
RegenmengeRegendauer
Wind-GeschwindigkeitWind-Richtung